Regional Weather Roundup
Issued by NWS Cleveland, OH

Home | Current Version | Previous Version | Graphics & Text | Print | Product List | Glossary On
Versions: 1 2 3 4 5 6 7 8 9 10 11 12 13 14 15 16 17 18 19 20 21 22 23 24 25 26 27 28 29 30 31 32 33 34 35 36 37 38 39 40 41 42 43 44 45 46 47 48 49 50
000
ASUS41 KCLE 240112
RWRCLE
OHIO REGIONAL WEATHER ROUNDUP
NATIONAL WEATHER SERVICE WILMINGTON, OH
900 PM EDT SAT SEP 23 2017

NOTE: "FAIR" INDICATES FEW OR NO CLOUDS BELOW 12,000 FEET WITH NO
SIGNIFICANT WEATHER AND/OR OBSTRUCTIONS TO VISIBILITY.

OHZ001>008-015>018-024>027-034-035-043-044-240200-
   NORTHWEST OHIO

CITY           SKY/WX    TMP DP  RH WIND       PRES   REMARKS
DEFIANCE       FAIR      75  62  64 E6        30.10R
FINDLAY        FAIR      78  58  49 E6        30.10R
TOLEDO EXPRESS FAIR      71  65  81 CALM      30.11R
TOLEDO EXEC    FAIR      74  63  68 E5        30.12S
LIMA           FAIR      73  63  70 E5        30.11R
$$

OHZ009>014-019>023-028>033-038-089-240200-
   NORTHEAST OHIO

CITY           SKY/WX    TMP DP  RH WIND       PRES   REMARKS
CLE-HOPKINS    FAIR      75  56  51 CALM      30.13S
CLE-LAKEFRONT  FAIR      74  65  73 E3        30.10S
CUY CO. ARPT   CLEAR     75  61  60 SE5       30.13S
LORAIN-ELYRIA  FAIR      66  55  67 CALM      30.12S
ASHTABULA      FAIR      67  63  87 CALM      30.15R
AKRON-CANTON   FAIR      77  59  53 E6        30.14R
WOOSTER        FAIR      65  63  93 E5        30.14R
MANSFIELD      FAIR      73  60  63 NE6       30.14R
YOUNGSTOWN     FAIR      71  63  75 NE5       30.14S
$$

OHZ042-051>053-060>062-070>072-077>081-240200-
  SOUTHWEST OHIO

CITY           SKY/WX    TMP DP  RH WIND       PRES   REMARKS
CINC-COVINGTON FAIR      77  66  68 CALM      30.08R
CINC-LUNKEN    FAIR      72  69  90 CALM      30.07R
HAMILTON       FAIR      70  68  93 CALM      30.08R
DAYTON         FAIR      76  58  53 SE9       30.11R
WRIGHT-PAT AFB FAIR      78  58  48 E5        30.09R
DAYTON GENERAL FAIR      79  59  50 E5        30.09R
WILMINGTON     FAIR      74  61  63 E5        30.10R
$$

OHZ036-037-039>041-045>050-054>059-063>069-073>076-082>088-240200-
  CENTRAL AND SOUTHEAST OHIO

CITY           SKY/WX    TMP DP  RH WIND       PRES   REMARKS
COLUMBUS       FAIR      78  62  57 E5        30.09S
OSU AIRPORT    FAIR      78  61  55 E3        30.10R
BOLTON FIELD   FAIR      70  63  80 W7        30.11R
RICKENBACK AFB FAIR      72  63  72 NE3       30.09R
NEWARK         FAIR      69  65  86 CALM      30.10S
MARION         FAIR      74  59  59 E6        30.11S
LANCASTER      FAIR      64  62  93 CALM      30.11R
ZANESVILLE     FAIR      73  58  59 CALM      30.11S
NEW PHILLY     FAIR      69  64  84 CALM      30.13R
$$




USA.gov is the U.S. government's official web portal to all federal, state and local government web resources and services.